Altoona, PA

6:22 PM EDT on May 24, 2018 (GMT -0400)
Altoona-Blair County

Weather History for KAOO - March, 2014

Change the Weather History Date:

Wednesday, March 12, 2014

  Actual Average Record
Temperature  
Mean Temperature 37 °F 36 °F  
Max Temperature 55 °F 45 °F 78 °F (1990)
Min Temperature 19 °F 27 °F 6 °F (1984)
Degree Days  
Heating Degree Days 28 29  
Month to date heating degree days 408 374  
Since 1 July heating degree days 5152 4944  
Cooling Degree Days 0 0  
Month to date cooling degree days 0 0  
Year to date cooling degree days 0 0  
Moisture  
Dew Point 36 °F    
Average Humidity 84    
Maximum Humidity 100    
Minimum Humidity 68    
Precipitation  
Precipitation 0.60 in 0.10 in 0.74 in (1970)
Month to date precipitation 0.64 1.06  
Year to date precipitation 4.00 5.27  
Sea Level Pressure  
Sea Level Pressure 29.29 in    
Wind  
Wind Speed 11 mph (WNW)    
Max Wind Speed 33 mph    
Max Gust Speed 44 mph    
Visibility 5 miles    
Events Rain , Snow    
T = Trace of Precipitation, MM = Missing Value Source: NWS Daily Summary

Daily Weather History Graph

Daily Weather History Graph

Search for Another Location

Airport or City:

Astronomy

Mar. 12, 2014 Rise Set
Actual Time 7:29 AM EDT 7:16 PM EDT
Civil Twilight 7:02 AM EDT 7:44 PM EDT
Nautical Twilight 6:31 AM EDT 8:15 PM EDT
Astronomical Twilight 5:59 AM EDT 8:47 PM EDT
Moon 3:45 PM EDT (3/12) 5:00 AM EDT (3/12)
Length of Visible Light 12h 41m
Length of Day
11h 47m
Waxing Gibbous, 85% of the Moon is Illuminated
Mar 12
Waxing Gibbous
Mar 16
Full
Mar 23
Last Quarter
Mar 30
New
Apr 7
First Quarter

Hourly Weather History & Observations

Time (EDT) Temp. Windchill Dew Point Humidity Pressure Visibility Wind Dir Wind Speed Gust Speed Precip Events Conditions
12:53 AM 43.0 °F 40.3 °F 36.0 °F 76% 29.64 in 10.0 mi WSW 4.6 mph - N/A   Clear
1:53 AM 42.1 °F - 36.0 °F 79% 29.62 in 10.0 mi Calm Calm - N/A   Clear
2:53 AM 44.1 °F 42.5 °F 36.0 °F 73% 29.57 in 10.0 mi NW 3.5 mph - N/A   Clear
3:53 AM 42.1 °F - 36.0 °F 79% 29.54 in 10.0 mi Calm Calm - N/A   Clear
4:53 AM 42.1 °F - 36.0 °F 79% 29.52 in 10.0 mi Calm Calm - N/A   Mostly Cloudy
5:53 AM 39.9 °F 36.7 °F 36.0 °F 86% 29.49 in 7.0 mi SE 4.6 mph - 0.00 in Rain Light Rain
6:53 AM 41.0 °F - 37.0 °F 86% 29.46 in 9.0 mi Calm Calm - 0.00 in   Mostly Cloudy
7:53 AM 42.1 °F 40.2 °F 36.0 °F 79% 29.42 in 10.0 mi NE 3.5 mph - N/A   Overcast
8:53 AM 39.9 °F 37.8 °F 37.0 °F 89% 29.38 in 6.0 mi ESE 3.5 mph - 0.00 in   Overcast
9:53 AM 42.1 °F - 37.0 °F 82% 29.33 in 6.0 mi Calm Calm - 0.00 in Rain Light Rain
10:53 AM 41.0 °F 34.7 °F 37.9 °F 89% 29.32 in 2.5 mi East 10.4 mph - 0.03 in Rain Rain
11:06 AM 39.9 °F 34.5 °F 37.9 °F 93% 29.29 in 1.5 mi East 8.1 mph - 0.06 in Rain Heavy Rain
11:19 AM 39.9 °F 35.1 °F 39.0 °F 97% 29.28 in 2.5 mi ENE 6.9 mph - 0.07 in Rain Light Rain
11:45 AM 39.9 °F 34.5 °F 39.0 °F 97% 29.25 in 1.8 mi NE 8.1 mph - 0.09 in Rain Light Rain
11:53 AM 39.9 °F 35.1 °F 39.0 °F 97% 29.30 in 1.8 mi NNW 6.9 mph - 0.10 in Rain Rain
12:05 PM 41.0 °F 38.0 °F 39.9 °F 96% 29.26 in 1.0 mi NNE 4.6 mph - 0.06 in Rain Heavy Rain
12:53 PM 41.0 °F 38.0 °F 39.9 °F 96% 29.21 in 1.0 mi ESE 4.6 mph - 0.22 in Rain Rain
1:19 PM 43.0 °F 38.8 °F 43.0 °F 100% 29.16 in 2.5 mi South 6.9 mph - 0.03 in Rain Light Rain
1:27 PM 44.1 °F 40.1 °F 43.0 °F 96% 29.15 in 3.0 mi South 6.9 mph - 0.04 in Rain Light Rain
1:53 PM 45.0 °F 41.2 °F 44.1 °F 97% 29.13 in 2.0 mi WSW 6.9 mph - 0.04 in   Overcast
2:00 PM 44.1 °F 41.5 °F 43.0 °F 96% 29.10 in 1.0 mi WSW 4.6 mph - N/A   Overcast
2:24 PM 45.0 °F 42.6 °F 43.0 °F 93% 29.08 in 2.5 mi West 4.6 mph - 0.01 in   Overcast
2:32 PM 45.0 °F - 44.1 °F 97% 29.07 in 2.5 mi Calm Calm - 0.01 in   Overcast
2:39 PM 45.0 °F - 44.1 °F 97% 29.07 in 3.0 mi Calm Calm - 0.01 in   Overcast
2:53 PM 46.0 °F - 44.1 °F 93% 29.06 in 3.0 mi Calm Calm - 0.01 in   Overcast
3:02 PM 46.0 °F 43.1 °F 44.1 °F 93% 29.05 in 2.5 mi WNW 5.8 mph - 0.00 in Rain Light Rain
3:08 PM 46.0 °F 38.0 °F 44.1 °F 93% 29.09 in 1.8 mi NW 21.9 mph - 0.02 in Rain Rain
3:10 PM 46.0 °F 38.0 °F 44.1 °F 93% 29.10 in 1.5 mi WNW 21.9 mph 31.1 mph 0.03 in Rain Heavy Rain
3:20 PM 46.0 °F 41.4 °F 45.0 °F 96% 29.08 in 0.8 mi West 9.2 mph - 0.15 in Rain Heavy Rain
3:27 PM 46.9 °F - 45.0 °F 93% 29.07 in 2.0 mi SW 3.5 mph - 0.17 in Rain Rain
3:36 PM 46.9 °F - 46.0 °F 97% 29.06 in 4.0 mi SSE 5.8 mph - 0.17 in Rain Light Rain
3:53 PM 46.9 °F - 46.0 °F 97% 29.06 in 3.0 mi SSE 5.8 mph - 0.19 in Rain Light Rain
4:53 PM 54.0 °F - 48.0 °F 80% 29.05 in 10.0 mi West 24.2 mph 38.0 mph 0.01 in   Overcast
5:42 PM 46.9 °F - 41.0 °F 80% 29.13 in 10.0 mi West 27.6 mph 39.1 mph N/A   Overcast
5:53 PM 45.0 °F 36.0 °F 39.0 °F 80% 29.17 in 10.0 mi West 25.3 mph 41.4 mph N/A   Overcast
6:53 PM 35.1 °F 23.5 °F 28.9 °F 78% 29.29 in 10.0 mi WNW 21.9 mph 38.0 mph N/A   Overcast
7:53 PM 28.9 °F 15.4 °F 21.0 °F 72% 29.42 in 9.0 mi NNW 21.9 mph 33.4 mph 0.00 in Snow Light Snow
8:03 PM 28.0 °F 14.6 °F 21.9 °F 78% 29.41 in 1.8 mi NNW 20.7 mph 28.8 mph 0.00 in Snow Light Snow
8:11 PM 27.0 °F 11.3 °F 19.9 °F 75% 29.42 in 3.0 mi NNW 27.6 mph 36.8 mph 0.00 in Snow Light Snow
8:39 PM 26.1 °F 11.3 °F 18.0 °F 71% 29.44 in 9.0 mi NW 23.0 mph 39.1 mph 0.00 in Snow Light Snow
8:51 PM 26.6 °F 10.8 °F 15.8 °F 64% 29.46 in 9.0 mi NW 27.6 mph 39.1 mph 0.00 in Snow Light Snow
8:53 PM 25.0 °F 9.2 °F 16.0 °F 69% 29.50 in 9.0 mi NW 25.3 mph 39.1 mph 0.00 in Snow Light Snow
9:53 PM 24.1 °F 7.7 °F 15.1 °F 69% 29.54 in 10.0 mi NW 26.5 mph 40.3 mph 0.00 in   Overcast
10:53 PM 23.0 °F 6.9 °F 14.0 °F 68% 29.56 in 8.0 mi NW 24.2 mph 40.3 mph 0.00 in Snow Light Snow
11:53 PM 21.0 °F 3.6 °F 12.0 °F 68% 29.57 in 9.0 mi NW 26.5 mph 39.1 mph 0.00 in Snow Light Snow